User: anonymous   Login
Location: Bangkok
(13.7500°N, 100.5170°E)
Time: 17:21:36
(UTC+07:00)
Language:

Cosmos 1802 Rocket - Orbit

View from above orbital plane
View from above orbital plane
View from above satellite
View from above satellite

Ground track
Ground track

The orbit data is extracted from the following two-line orbital elements,

1 17160U 86093B   15117.09450440  .00000147  00000-0  13870-3 0  9996
2 17160 082.9250 284.4744 0039362 166.3989 333.9294 13.74554236425421
Epoch (UTC): 27 April 2015 02:16:05
Eccentricity: 0.0039362
inclination: 82.9250°
perigee height: 954 km
apogee height: 1012 km
right ascension of ascending node: 284.4744°
argument of perigee: 166.3989°
revolutions per day: 13.74554236
mean anomaly at epoch: 333.9294°
orbit number at epoch: 42542

The dashed part of the orbit path shows where the satellite is in the earth's shadow,  

DLR